When you browse on this site, cookies collect data to enhance your experience and personalize the content and advertising you see.
Visit our Privacy Policy to learn more. By continuing to use the site, you agree to this use of cookies and data.
  • In Lithuania
  • List of Countries
  • For 7 days
  • Water Temperature
  • Weather Map
  • Weather Widgets
  • user-avatar
    Login

    Hourly Weather La Rioja

    Today, 9 April, Thursday

    Time Temperature Precipitation Wind Pressure Humidity
    00:00 +16°C° 0 mm 2 mps 718 mmHg 59%
    01:00 +16°C° 0 mm 2 mps 718 mmHg 60%
    02:00 +16°C° 0 mm 1 mps 718 mmHg 62%
    03:00 +15°C° 0 mm 1 mps 718 mmHg 63%
    04:00 +15°C° 0 mm 1 mps 718 mmHg 64%
    05:00 +15°C° 0 mm 1 mps 718 mmHg 66%
    06:00 +15°C° 0 mm 2 mps 718 mmHg 64%
    07:00 +16°C° 0 mm 2 mps 718 mmHg 62%
    08:00 +16°C° 0 mm 2 mps 718 mmHg 60%
    09:00 +17°C° 0 mm 2 mps 718 mmHg 57%
    10:00 +19°C° 0 mm 2 mps 718 mmHg 54%
    11:00 +21°C° 0 mm 1 mps 719 mmHg 51%
    12:00 +21°C° 0 mm 2 mps 718 mmHg 49%
    13:00 +23°C° 0 mm 2 mps 718 mmHg 47%
    14:00 +24°C° 0 mm 2 mps 717 mmHg 46%
    15:00 +24°C° 0 mm 2 mps 717 mmHg 45%
    16:00 +24°C° 0 mm 2 mps 716 mmHg 45%
    17:00 +24°C° 0 mm 2 mps 716 mmHg 45%
    18:00 +23°C° 0 mm 2 mps 716 mmHg 49%
    19:00 +21°C° 0 mm 2 mps 717 mmHg 54%
    20:00 +19°C° 0 mm 2 mps 717 mmHg 58%
    21:00 +20°C° 0 mm 1 mps 717 mmHg 60%
    22:00 +19°C° 0 mm 1 mps 718 mmHg 62%
    23:00 +19°C° 0 mm 1 mps 718 mmHg 64%

    Tomorrow, 10 April, Friday

    Time Temperature Precipitation Wind Pressure Humidity
    00:00 +18°C° 0 mm 1 mps 717 mmHg 66%
    01:00 +18°C° 0 mm 1 mps 717 mmHg 67%
    02:00 +18°C° 0 mm 1 mps 717 mmHg 69%
    03:00 +16°C° 0 mm 1 mps 717 mmHg 70%
    04:00 +16°C° 0 mm 1 mps 716 mmHg 71%
    05:00 +16°C° 0 mm 1 mps 716 mmHg 72%
    06:00 +16°C° 0 mm 1 mps 716 mmHg 69%
    07:00 +18°C° 0 mm 1 mps 717 mmHg 66%
    08:00 +19°C° 0 mm 1 mps 717 mmHg 63%
    09:00 +19°C° 0 mm 2 mps 717 mmHg 59%
    10:00 +21°C° 0 mm 2 mps 717 mmHg 55%
    11:00 +23°C° 0 mm 2 mps 716 mmHg 51%
    12:00 +24°C° 0 mm 2 mps 716 mmHg 49%
    13:00 +25°C° 0 mm 2 mps 715 mmHg 46%
    14:00 +26°C° 0 mm 2 mps 714 mmHg 44%
    15:00 +26°C° 0 mm 3 mps 714 mmHg 44%
    16:00 +26°C° 0 mm 3 mps 714 mmHg 44%
    17:00 +27°C° 0 mm 3 mps 713 mmHg 44%
    18:00 +25°C° 0 mm 2 mps 713 mmHg 49%
    19:00 +23°C° 0 mm 2 mps 713 mmHg 54%
    20:00 +21°C° 0 mm 2 mps 714 mmHg 59%
    21:00 +21°C° 0 mm 1 mps 714 mmHg 62%
    22:00 +20°C° 0 mm 1 mps 714 mmHg 66%
    23:00 +19°C° 0 mm 1 mps 714 mmHg 69%

    Day after tomorrow, 11 April, Saturday

    Time Temperature Precipitation Wind Pressure Humidity
    00:00 +19°C° 0 mm 1 mps 714 mmHg 71%
    01:00 +19°C° 0 mm 1 mps 713 mmHg 73%
    02:00 +18°C° 0 mm 1 mps 713 mmHg 74%
    03:00 +18°C° 0 mm 1 mps 713 mmHg 76%
    04:00 +18°C° 0 mm 1 mps 713 mmHg 77%
    05:00 +16°C° 0 mm 1 mps 712 mmHg 78%
    06:00 +17°C° 0 mm 2 mps 713 mmHg 74%
    07:00 +18°C° 0 mm 2 mps 713 mmHg 71%
    08:00 +18°C° 0 mm 2 mps 713 mmHg 68%
    09:00 +20°C° 0 mm 2 mps 713 mmHg 62%
    10:00 +23°C° 0 mm 2 mps 713 mmHg 57%
    11:00 +24°C° 0 mm 2 mps 714 mmHg 52%
    12:00 +25°C° 0 mm 2 mps 713 mmHg 49%
    13:00 +26°C° 0 mm 2 mps 712 mmHg 47%
    14:00 +27°C° 0 mm 2 mps 712 mmHg 44%
    15:00 +27°C° 0 mm 2 mps 712 mmHg 44%
    16:00 +27°C° 0 mm 2 mps 711 mmHg 44%
    17:00 +27°C° 0 mm 1 mps 711 mmHg 44%
    18:00 +26°C° 0 mm 1 mps 712 mmHg 49%
    19:00 +24°C° 0 mm 1 mps 712 mmHg 54%
    20:00 +22°C° 0 mm 1 mps 712 mmHg 59%
    21:00 +22°C° 0 mm 1 mps 713 mmHg 63%
    22:00 +21°C° 0 mm 1 mps 713 mmHg 66%
    23:00 +18°C° 0 mm 0 mps 713 mmHg 70%

    12 April, Sunday

    Time Temperature Precipitation Wind Pressure Humidity
    00:00 +20°C° 0 mm 1 mps 713 mmHg 70%
    01:00 +20°C° 0 mm 1 mps 713 mmHg 70%
    02:00 +19°C° 0 mm 2 mps 712 mmHg 71%
    03:00 +18°C° 0 mm 2 mps 712 mmHg 72%
    04:00 +18°C° 0 mm 2 mps 712 mmHg 74%
    05:00 +17°C° 0 mm 2 mps 712 mmHg 76%
    06:00 +18°C° 0 mm 2 mps 712 mmHg 73%
    07:00 +19°C° 0 mm 2 mps 712 mmHg 69%
    08:00 +19°C° 0 mm 2 mps 712 mmHg 66%
    09:00 +21°C° 0 mm 2 mps 712 mmHg 61%
    10:00 +23°C° 0 mm 2 mps 712 mmHg 56%
    11:00 +25°C° 0 mm 2 mps 713 mmHg 50%
    12:00 +26°C° 0 mm 3 mps 712 mmHg 49%
    13:00 +27°C° 0 mm 3 mps 711 mmHg 47%
    14:00 +27°C° 0 mm 3 mps 711 mmHg 45%
    15:00 +27°C° 0 mm 2 mps 710 mmHg 46%
    16:00 +27°C° 0 mm 2 mps 710 mmHg 46%
    17:00 +27°C° 0 mm 2 mps 710 mmHg 47%
    18:00 +26°C° 0.1 mm 2 mps 710 mmHg 51%
    19:00 +24°C° 0.1 mm 2 mps 711 mmHg 55%
    20:00 +23°C° 0.1 mm 2 mps 712 mmHg 59%
    21:00 +23°C° 0 mm 2 mps 712 mmHg 61%
    22:00 +21°C° 0 mm 2 mps 713 mmHg 62%
    23:00 +21°C° 0 mm 2 mps 713 mmHg 64%

    13 April, Monday

    Time Temperature Precipitation Wind Pressure Humidity
    00:00 +21°C° 0 mm 3 mps 713 mmHg 65%
    01:00 +20°C° 0 mm 3 mps 713 mmHg 67%
    02:00 +20°C° 0 mm 3 mps 714 mmHg 68%
    03:00 +19°C° 0 mm 2 mps 714 mmHg 70%
    04:00 +19°C° 0 mm 2 mps 714 mmHg 72%
    05:00 +18°C° 0 mm 2 mps 714 mmHg 74%
    06:00 +18°C° 0 mm 2 mps 714 mmHg 72%
    07:00 +19°C° 0 mm 2 mps 715 mmHg 69%
    08:00 +20°C° 0 mm 2 mps 715 mmHg 66%
    09:00 +21°C° 0 mm 3 mps 715 mmHg 62%
    10:00 +22°C° 0 mm 3 mps 715 mmHg 59%
    11:00 +23°C° 0 mm 4 mps 716 mmHg 55%
    12:00 +25°C° 0 mm 4 mps 715 mmHg 54%
    13:00 +25°C° 0 mm 4 mps 715 mmHg 53%
    14:00 +26°C° 0 mm 4 mps 714 mmHg 51%
    15:00 +26°C° 0 mm 3 mps 714 mmHg 52%
    16:00 +25°C° 0 mm 3 mps 714 mmHg 52%
    17:00 +25°C° 0 mm 3 mps 714 mmHg 52%
    18:00 +24°C° 0 mm 2 mps 714 mmHg 56%
    19:00 +23°C° 0 mm 2 mps 715 mmHg 60%
    20:00 +22°C° 0 mm 1 mps 715 mmHg 64%
    21:00 +22°C° 0 mm 1 mps 716 mmHg 66%
    22:00 +21°C° 0 mm 2 mps 716 mmHg 67%
    23:00 +20°C° 0 mm 2 mps 717 mmHg 69%

    14 April, Tuesday

    Time Temperature Precipitation Wind Pressure Humidity
    00:00 +20°C° 0.1 mm 2 mps 717 mmHg 71%
    01:00 +20°C° 0.1 mm 3 mps 717 mmHg 73%
    02:00 +19°C° 0.1 mm 3 mps 718 mmHg 76%
    03:00 +19°C° 0 mm 3 mps 718 mmHg 76%
    04:00 +18°C° 0 mm 2 mps 718 mmHg 77%
    05:00 +18°C° 0 mm 2 mps 718 mmHg 78%
    06:00 +18°C° 0 mm 2 mps 718 mmHg 77%
    07:00 +18°C° 0 mm 2 mps 719 mmHg 76%
    08:00 +20°C° 0 mm 1 mps 719 mmHg 74%
    09:00 +19°C° 0 mm 2 mps 719 mmHg 71%
    10:00 +20°C° 0 mm 2 mps 720 mmHg 68%
    11:00 +21°C° 0 mm 2 mps 720 mmHg 65%
    12:00 +23°C° 0.1 mm 2 mps 719 mmHg 63%
    13:00 +23°C° 0.1 mm 2 mps 719 mmHg 61%
    14:00 +24°C° 0.1 mm 3 mps 718 mmHg 58%
    15:00 +24°C° 0.1 mm 2 mps 718 mmHg 60%
    16:00 +23°C° 0.1 mm 2 mps 717 mmHg 61%
    17:00 +23°C° 0.1 mm 2 mps 717 mmHg 62%
    18:00 +23°C° 0 mm 2 mps 717 mmHg 64%
    19:00 +21°C° 0 mm 2 mps 717 mmHg 66%
    20:00 +20°C° 0 mm 2 mps 717 mmHg 68%
    21:00 +21°C° 0 mm 1 mps 718 mmHg 71%
    22:00 +20°C° 0 mm 1 mps 718 mmHg 74%
    23:00 +19°C° 0 mm 1 mps 718 mmHg 76%
    Show more